Temperature
19 20 20 20 20 19 19 18 18 19 18 18 18 17 18 18 18 18 18 18 18 18 18 18 18 18 17 17 17 17 17 17 17 16 16 16 16 16 15 15 15 15 15 15
19 20 20 20 20 20 19 19 18 19 18 17 17 18 17 17 17 17 17 18 18 18 18 18 18 18 17 17 17 17 17 16 16 16 16 16 16 15 15 15 15 15 15 15
18 19 20 19 19 19 19 18 18 18 18 17 16 16 17 17 17 17 17 17 17 17 17 17 17 17 17 17 17 16 16 16 16 16 16 15 15 15 15 15 15 15 15 15
16 18 19 19 19 19 19 18 18 18 17 16 17 17 18 18 17 17 17 17 17 17 17 17 17 17 17 17 16 16 16 16 16 16 15 15 15 15 15 15 15 15 14 14
14 17 18 18 19 18 18 18 17 17 16 16 16 16 17 17 17 18 18 17 17 17 17 17 17 17 17 16 16 16 16 16 15 15 15 15 15 15 15 14 14 14 14 14
14 17 18 18 19 19 19 18 17 17 16 15 16 15 16 18 17 17 17 17 17 17 17 17 17 16 16 16 16 16 16 15 15 15 15 15 15 15 14 14 14 14 14 14
14 16 16 17 18 19 18 18 18 17 17 16 16 16 17 18 17 17 17 17 17 17 17 17 16 16 16 16 16 15 15 15 15 15 15 14 14 14 14 14 14 14 14 13
13 16 17 17 17 17 17 18 18 18 18 17 17 17 17 17 17 17 17 17 16 16 16 16 16 16 16 16 15 15 15 15 15 14 14 14 14 14 14 14 14 14 13 13
14 15 16 17 17 18 19 18 18 18 18 18 17 17 17 17 17 17 16 16 16 16 16 15 15 15 16 15 15 15 15 15 14 14 14 14 14 14 13 13 13 13 13 13
13 14 15 17 17 18 18 18 19 18 18 18 17 17 16 16 16 16 16 16 16 16 15 15 15 15 15 15 15 14 14 14 14 14 14 13 13 13 13 13 13 13 13 13
13 14 15 17 17 18 18 18 18 18 18 17 17 17 16 16 16 16 16 16 15 15 15 15 15 15 15 15 15 14 14 14 13 13 13 13 13 13 13 13 12 12 12 12
14 15 14 16 17 17 17 17 17 17 17 17 17 17 16 16 15 15 15 15 15 15 15 15 15 15 14 14 14 14 14 14 13 13 13 13 13 13 13 12 12 12 12 12
16 17 16 17 17 17 17 17 17 17 17 16 16 16 16 15 15 15 15 15 15 15 15 15 15 14 14 14 14 14 14 13 13 13 13 13 12 12 12 12 12 12 12 12
16 16 16 16 17 17 17 16 16 16 16 16 16 15 15 15 15 14 14 15 14 15 14 14 14 14 14 14 14 14 14 14 13 13 13 12 12 12 12 12 12 12 11 11
16 16 16 16 16 16 16 16 16 15 15 15 15 15 15 15 14 14 14 14 14 14 14 14 14 14 14 14 14 14 14 13 13 13 12 12 12 12 12 12 12 11 11 11
16 16 16 16 15 15 15 15 15 15 15 15 15 15 14 14 14 14 14 14 14 14 14 14 14 14 14 14 13 13 13 13 13 13 12 12 12 12 11 11 11 11 11 11
15 15 15 15 15 15 15 15 15 14 14 14 14 14 14 13 13 13 13 13 13 13 13 13 14 14 13 13 13 13 13 13 13 12 12 12 12 12 11 11 11 11 11 11
15 15 15 15 15 15 14 14 14 14 14 14 14 13 13 13 13 13 13 13 13 13 13 13 13 13 13 13 13 13 13 13 12 12 12 12 12 11 11 11 11 11 11 11
15 15 15 15 15 14 14 14 14 14 14 14 13 13 13 13 13 13 13 12 12 13 13 13 13 13 13 13 13 13 13 12 12 12 12 11 11 11 11 11 11 11 11 10
14 14 14 14 14 14 14 14 14 14 14 13 13 13 13 13 13 12 12 12 12 12 13 13 13 13 13 13 12 12 12 12 12 12 12 11 11 11 11 11 11 11 11 10
14 14 14 14 14 14 14 14 13 13 13 13 13 12 12 12 12 12 12 12 12 12 12 12 12 12 12 12 12 12 12 12 12 12 12 11 11 11 11 11 11 10 10 10
13 13 13 13 13 13 13 13 13 13 13 13 12 12 12 12 12 12 12 12 12 12 12 12 12 12 12 12 12 12 12 12 12 12 11 11 11 11 11 10 10 10 10 10
13 13 13 13 13 13 12 12 12 12 12 12 12 12 12 12 12 12 12 12 12 12 12 12 12 12 12 12 12 12 12 12 12 11 11 11 11 11 10 10 10 10 10 10
12 12 12 12 12 12 12 12 12 12 12 11 11 11 11 11 11 11 11 11 11 11 11 11 12 12 12 12 12 12 11 11 11 11 11 11 11 10 10 10 10 10 9 9
12 12 12 12 12 12 12 11 11 11 11 11 11 11 11 11 11 11 11 11 11 11 11 11 11 11 11 11 11 11 11 11 11 11 11 11 11 10 10 10 10 9 9 9
12 12 12 12 12 12 12 11 11 11 11 11 11 11 11 11 11 11 11 11 11 11 11 11 11 11 11 11 11 11 11 11 11 11 11 11 10 10 10 10 9 9 9 9
11 11 11 11 11 11 11 11 11 11 11 11 11 10 10 10 11 11 11 11 11 11 11 11 11 11 11 11 11 11 11 11 11 10 10 10 10 10 10 9 9 9 9 9
Wind_Speed
3 3 3 3 3 3 5 7 7 7 7 6 5 4 3 1 0 1 1 1 2 2 2 3 3 3 3 3 2 2 2 2 3 2 1 1 2 2 2 2 2 2 1 2
1 1 1 2 2 3 4 3 4 3 6 4 2 1 1 1 1 1 1 1 1 1 1 3 4 4 3 2 2 3 3 3 2 1 1 1 1 1 1 2 1 1 1 2
3 3 2 3 5 5 4 4 6 6 7 1 1 3 4 4 2 2 2 2 1 2 2 2 3 3 4 3 3 3 2 2 1 1 1 1 1 0 1 2 1 1 1 1
2 2 5 8 3 4 5 4 4 4 3 3 4 4 3 2 3 2 2 2 1 1 1 1 1 2 3 3 3 3 2 2 2 1 2 1 1 1 2 1 1 2 2 2
4 3 5 6 2 4 4 5 4 3 2 1 2 3 2 2 2 3 2 1 1 1 0 0 1 1 2 2 2 2 2 2 2 2 2 1 2 2 2 1 1 2 2 2
4 4 6 7 3 2 3 4 4 5 5 3 3 0 4 3 2 1 1 1 0 1 1 1 0 1 2 2 2 2 3 3 2 2 2 2 2 2 1 1 2 2 2 3
4 4 7 6 2 3 4 7 4 5 5 5 5 5 4 1 1 1 1 1 1 1 1 1 1 2 2 2 2 3 2 1 1 1 1 1 1 1 1 1 1 1 2 3
4 3 7 3 3 6 7 3 2 4 5 5 4 3 2 1 1 1 1 1 1 1 0 0 1 3 2 2 2 1 1 1 1 1 1 1 1 1 1 1 1 2 2 3
7 7 5 3 5 4 3 3 3 4 4 5 4 4 3 2 2 1 1 1 1 1 0 1 1 2 3 2 1 1 1 1 1 0 0 0 1 1 1 1 1 2 2 2
3 6 5 6 5 3 3 4 4 4 5 5 5 4 3 2 2 1 1 1 1 1 1 1 2 1 2 2 2 2 1 1 1 1 0 1 0 1 1 1 2 2 2 2
4 6 5 6 5 4 4 3 2 2 4 5 5 5 4 3 3 3 2 1 1 2 2 3 2 2 2 2 2 2 2 1 1 1 1 1 1 2 2 3 4 3 3 3
7 7 5 8 6 4 4 4 4 3 3 4 5 6 5 4 4 3 3 2 1 2 3 3 2 3 2 2 3 3 2 2 1 1 1 1 1 2 3 3 3 3 4 4
7 5 5 7 5 4 4 4 4 4 4 4 4 5 5 4 4 3 3 3 3 3 4 3 3 3 3 2 3 4 4 3 2 2 2 2 1 1 2 3 3 2 1 1
6 3 4 5 5 4 4 3 2 2 3 3 4 3 4 3 3 4 4 4 4 3 3 3 3 4 4 3 3 4 4 4 3 3 2 2 2 2 2 1 1 2 3 2
5 5 6 5 3 3 2 1 1 2 2 2 2 3 4 4 5 5 4 3 2 2 3 3 4 5 3 3 4 4 3 3 2 2 2 2 1 1 1 1 1 1 2 2
4 3 2 3 3 3 2 2 3 4 4 3 3 4 4 4 4 3 3 3 3 5 5 5 5 5 3 4 4 3 3 3 2 2 2 2 1 1 1 1 1 1 1 1
3 3 3 3 4 4 4 4 4 4 4 3 4 4 3 2 2 3 4 4 4 5 5 5 6 5 4 5 5 4 3 3 2 2 2 2 2 2 2 2 1 1 1 1
6 6 5 5 5 4 4 3 4 4 5 4 3 2 3 4 5 5 5 3 3 4 5 5 5 4 4 4 4 4 4 3 3 3 2 2 2 2 2 2 2 1 1 1
4 4 4 3 3 4 4 4 4 4 4 3 3 3 4 4 4 4 3 3 4 5 6 5 5 4 4 4 4 4 4 4 3 2 2 2 2 2 2 2 2 2 1 1
3 3 3 2 2 2 2 2 1 2 2 3 3 2 3 4 3 3 3 3 5 5 4 4 3 3 3 3 3 3 4 4 3 3 2 2 2 2 2 2 2 2 1 1
2 2 1 1 1 1 0 1 2 2 2 2 3 4 4 3 3 3 3 4 5 5 4 4 3 3 3 3 3 3 4 4 3 3 3 3 3 2 2 2 2 2 1 1
2 1 1 2 2 2 2 1 1 2 1 1 2 2 2 2 2 2 3 4 4 4 2 2 3 4 4 3 3 3 3 4 3 3 3 3 3 3 2 2 2 2 2 2
2 2 2 2 2 2 3 2 2 1 1 1 1 1 2 2 2 2 3 3 3 3 2 2 3 3 3 3 3 3 3 4 3 3 3 3 3 3 3 2 2 2 2 2
2 2 2 2 3 4 3 2 2 1 1 1 1 1 1 1 1 2 2 2 2 2 2 3 3 3 3 2 3 3 3 3 3 3 3 3 2 2 2 2 2 2 2 2
2 2 3 3 2 1 1 2 2 3 2 2 2 2 1 1 2 2 1 1 2 2 1 2 2 2 2 2 2 3 3 3 3 3 3 2 3 2 2 2 2 2 2 1
2 1 1 0 0 0 0 1 1 1 1 2 2 2 2 1 1 1 1 1 1 1 1 0 1 1 1 2 2 2 2 2 2 2 3 3 3 3 2 2 2 2 2 2
2 2 2 2 2 1 1 0 0 1 1 0 1 2 2 2 1 1 1 1 1 0 0 1 0 0 0 1 1 2 2 2 2 2 2 2 2 2 2 3 2 2 2 2
Wind_Direction
225 227 183 195 212 192 189 190 192 226 223 243 237 230 246 272 17 105 112 139 180 209 213 197 194 202 205 203 191 182 178 203 228 236 226 216 210 216 224 226 237 235 249 271
291 276 195 232 239 206 209 199 214 226 247 260 246 165 223 220 181 177 205 206 199 198 214 211 199 195 197 191 188 171 180 212 232 227 205 229 232 227 235 245 249 234 246 260
240 295 50 271 238 206 203 206 183 210 238 224 246 220 218 216 207 210 225 215 201 220 223 219 207 193 190 190 171 164 177 193 201 208 222 252 260 288 270 265 260 258 255 252
143 92 221 241 249 195 190 213 203 217 235 209 220 231 228 205 203 222 232 218 232 288 329 303 203 178 166 157 158 167 181 205 208 209 234 250 267 258 263 286 271 253 258 250
133 191 260 287 245 179 184 241 213 203 212 188 37 48 326 253 218 215 220 227 228 202 207 69 55 121 136 148 160 168 203 219 220 213 227 242 262 275 261 256 280 280 271 257
136 173 229 244 256 197 135 262 227 190 186 174 104 123 266 265 249 248 244 105 83 77 76 71 28 117 141 158 166 206 224 232 229 214 217 238 254 269 262 241 255 268 283 271
164 210 254 252 255 114 169 244 230 195 196 184 194 215 233 233 235 235 220 186 133 108 114 193 171 154 156 172 219 234 220 200 225 228 215 225 245 269 277 264 270 272 280 288
152 195 253 253 136 183 223 245 185 193 197 192 205 206 204 194 198 187 171 167 144 123 303 263 165 166 170 221 243 218 177 171 203 227 235 238 234 276 259 223 248 274 291 307
190 214 249 257 238 248 213 216 219 201 206 182 189 212 213 205 200 214 202 186 185 166 299 319 249 185 190 227 214 175 160 196 209 112 33 38 158 295 318 294 259 272 276 286
256 271 279 283 285 285 255 231 234 219 202 188 199 202 202 204 207 230 249 220 190 165 186 255 265 239 215 209 173 165 177 185 153 133 72 10 353 246 258 272 270 272 270 275
259 279 308 291 270 267 278 255 231 239 224 201 189 205 208 211 216 224 240 220 190 198 214 238 244 235 227 194 164 170 178 171 178 184 198 291 300 261 243 245 228 225 238 238
232 232 223 261 269 265 253 251 232 227 238 221 200 199 203 209 210 212 223 226 222 234 236 247 234 229 227 193 171 171 190 196 202 216 224 245 283 322 317 281 261 238 230 229
239 249 243 266 266 251 236 236 231 223 216 226 225 207 201 207 208 209 221 219 222 235 244 245 231 232 235 205 184 185 197 206 212 217 216 231 241 265 312 339 353 359 310 254
242 239 262 260 257 253 240 230 224 243 239 215 210 201 189 197 203 212 228 232 232 238 252 247 234 238 233 205 193 200 205 209 210 216 220 227 238 253 256 262 310 338 333 314
253 244 247 265 271 269 259 229 220 244 242 237 209 192 189 197 208 223 235 232 226 245 250 240 241 249 237 205 195 201 204 211 214 215 217 227 232 240 254 258 259 294 327 328
269 279 259 255 246 255 263 249 231 236 230 223 217 214 211 210 215 223 230 211 213 241 245 237 241 247 233 207 200 204 211 216 200 196 203 207 217 224 228 235 251 258 271 280
253 267 270 268 260 260 258 251 234 232 236 228 226 217 196 198 227 243 249 240 235 243 244 239 242 242 225 208 198 199 200 204 198 189 203 207 212 221 223 225 237 252 263 248
248 246 235 228 231 242 253 248 232 223 228 231 226 210 206 211 225 235 240 243 256 267 261 250 242 233 223 212 198 192 189 191 200 208 207 208 217 221 219 223 230 243 285 291
265 260 258 251 240 224 229 235 231 226 223 195 193 216 228 228 231 234 223 214 234 251 260 251 236 224 222 216 199 185 183 186 195 200 198 200 209 220 216 222 230 226 237 257
279 278 275 284 276 249 240 239 213 214 205 177 182 207 230 239 234 225 213 227 244 250 253 246 231 224 223 217 198 183 182 187 197 201 199 205 214 227 225 227 231 223 219 223
298 300 303 327 348 343 221 161 147 164 188 183 188 205 220 233 223 203 208 251 270 263 253 238 224 224 218 209 195 185 186 189 197 205 211 217 215 220 227 230 230 219 218 230
343 12 32 50 63 38 31 66 105 128 140 174 207 208 208 230 227 230 236 240 260 267 254 231 224 223 217 200 188 191 191 189 194 199 205 213 214 216 223 226 219 213 211 213
20 41 44 56 67 57 44 44 45 85 141 174 180 190 220 235 223 215 261 265 254 253 241 230 229 226 221 194 192 193 190 189 191 199 207 209 212 216 218 220 215 206 205 212
42 46 38 44 61 64 49 18 12 8 6 359 307 238 216 229 270 254 251 267 252 241 239 240 234 231 203 189 192 195 194 192 194 201 205 205 204 204 207 209 214 209 197 193
23 52 60 61 60 42 12 28 25 13 22 21 353 335 291 219 229 262 262 266 264 255 264 259 244 216 186 188 196 203 205 200 197 196 201 205 208 207 206 202 200 193 189 186
354 5 1 291 209 207 87 91 74 352 19 7 351 347 345 331 310 317 313 303 300 265 253 269 226 191 182 194 201 208 214 212 202 200 202 206 206 203 196 192 188 184 189 186
5 19 28 16 7 15 64 111 176 272 253 232 331 331 336 344 349 345 332 327 328 337 343 324 280 158 199 215 211 212 214 209 210 215 212 203 193 195 198 186 178 175 179 172
Height
1496 1492 1492 1493 1494 1495 1499 1502 1507 1502 1500 1493 1490 1489 1488 1488 1487 1487 1487 1488 1488 1489 1489 1490 1491 1492 1493 1494 1495 1496 1497 1497 1497 1497 1497 1497 1497 1497 1497 1497 1497 1497 1497 1497
1496 1492 1492 1493 1492 1492 1493 1495 1497 1495 1495 1487 1487 1488 1488 1487 1487 1486 1486 1486 1487 1487 1488 1488 1489 1490 1491 1492 1493 1494 1494 1495 1495 1495 1495 1495 1495 1495 1495 1495 1495 1494 1494 1494
1504 1496 1493 1500 1492 1491 1491 1490 1492 1495 1490 1486 1487 1486 1486 1486 1485 1485 1485 1485 1485 1485 1486 1486 1487 1488 1489 1490 1491 1491 1492 1492 1492 1492 1492 1492 1493 1492 1492 1492 1492 1492 1491 1491
1507 1503 1510 1495 1483 1483 1485 1485 1485 1485 1484 1484 1483 1483 1484 1485 1484 1484 1484 1483 1484 1485 1485 1485 1486 1487 1487 1489 1489 1489 1489 1489 1490 1490 1490 1490 1490 1490 1490 1490 1490 1490 1489 1489
1511 1510 1502 1490 1482 1482 1485 1485 1481 1482 1482 1483 1483 1483 1484 1484 1484 1483 1483 1483 1483 1484 1484 1484 1485 1485 1486 1487 1487 1487 1487 1487 1488 1488 1488 1488 1488 1488 1488 1487 1487 1487 1487 1486
1508 1506 1506 1490 1478 1477 1481 1486 1478 1478 1479 1481 1482 1487 1484 1482 1482 1482 1482 1482 1482 1482 1483 1483 1483 1484 1485 1485 1485 1485 1485 1485 1486 1486 1486 1486 1486 1486 1486 1485 1485 1485 1484 1484
1505 1503 1495 1480 1476 1477 1490 1485 1474 1475 1476 1478 1479 1480 1480 1479 1480 1480 1480 1481 1481 1481 1481 1482 1482 1483 1482 1483 1483 1483 1483 1484 1484 1484 1484 1484 1484 1484 1483 1483 1482 1482 1482 1481
1504 1503 1496 1475 1476 1479 1477 1471 1471 1473 1473 1475 1476 1476 1477 1477 1478 1478 1478 1479 1479 1479 1479 1480 1480 1481 1481 1481 1481 1482 1482 1481 1482 1482 1482 1482 1482 1481 1481 1480 1479 1478 1478 1478
1489 1487 1476 1473 1473 1472 1471 1470 1470 1471 1472 1473 1473 1474 1474 1475 1475 1476 1476 1477 1477 1477 1477 1478 1479 1479 1479 1479 1480 1480 1480 1479 1479 1479 1480 1480 1479 1479 1478 1477 1476 1475 1474 1474
1483 1476 1472 1471 1470 1469 1469 1469 1469 1469 1470 1470 1471 1471 1472 1472 1473 1474 1474 1475 1475 1476 1476 1476 1477 1477 1477 1478 1478 1479 1478 1478 1478 1478 1478 1477 1477 1476 1475 1474 1473 1472 1471 1471
1480 1474 1470 1468 1468 1468 1467 1467 1467 1468 1468 1469 1469 1469 1470 1470 1471 1472 1472 1473 1473 1474 1474 1474 1475 1475 1476 1476 1477 1477 1477 1477 1477 1476 1476 1475 1474 1474 1472 1472 1471 1470 1469 1469
1476 1470 1469 1467 1466 1466 1465 1465 1465 1465 1465 1466 1466 1466 1467 1468 1469 1470 1471 1471 1472 1472 1472 1473 1473 1473 1474 1474 1474 1474 1475 1475 1475 1474 1474 1473 1472 1472 1470 1469 1468 1467 1467 1467
1467 1466 1466 1464 1464 1463 1463 1463 1463 1463 1462 1463 1463 1464 1465 1466 1467 1468 1469 1469 1469 1469 1470 1470 1470 1471 1471 1472 1472 1472 1472 1473 1473 1472 1472 1471 1470 1469 1467 1467 1467 1466 1466 1465
1464 1464 1462 1461 1460 1460 1460 1460 1460 1460 1460 1460 1460 1461 1462 1463 1464 1465 1466 1466 1466 1467 1467 1468 1468 1469 1469 1470 1470 1470 1470 1470 1470 1470 1469 1469 1468 1467 1465 1464 1464 1463 1464 1464
1461 1460 1459 1458 1458 1457 1457 1457 1457 1457 1457 1457 1458 1458 1459 1460 1461 1462 1463 1463 1464 1464 1465 1465 1466 1466 1467 1467 1468 1468 1468 1468 1468 1468 1467 1467 1466 1465 1464 1463 1462 1462 1461 1461
1457 1457 1456 1455 1454 1454 1454 1454 1453 1454 1454 1454 1455 1455 1456 1457 1458 1459 1460 1460 1461 1461 1462 1462 1463 1463 1464 1464 1465 1465 1465 1466 1466 1465 1465 1465 1464 1463 1462 1462 1461 1460 1459 1459
1454 1452 1451 1451 1451 1451 1451 1450 1450 1451 1451 1451 1452 1452 1453 1454 1455 1455 1456 1457 1458 1458 1459 1459 1460 1460 1461 1461 1462 1462 1463 1463 1463 1463 1463 1462 1462 1462 1461 1461 1460 1459 1458 1458
1451 1450 1449 1448 1447 1447 1447 1448 1448 1448 1448 1449 1449 1450 1450 1451 1451 1452 1453 1454 1454 1455 1456 1456 1457 1457 1458 1458 1459 1459 1460 1460 1460 1460 1460 1460 1460 1460 1459 1459 1458 1458 1457 1457
1448 1447 1446 1445 1445 1444 1444 1444 1445 1446 1446 1446 1447 1447 1448 1448 1449 1449 1450 1451 1452 1452 1452 1453 1454 1454 1455 1455 1456 1456 1457 1457 1457 1458 1458 1458 1458 1458 1457 1457 1457 1457 1456 1456
1444 1444 1443 1443 1442 1442 1441 1442 1443 1443 1443 1444 1445 1445 1445 1446 1447 1447 1448 1448 1448 1448 1449 1450 1450 1451 1451 1452 1453 1453 1454 1454 1455 1455 1456 1456 1455 1455 1455 1455 1455 1455 1454 1455
1441 1441 1440 1440 1440 1440 1440 1440 1441 1441 1441 1442 1443 1443 1443 1444 1444 1445 1445 1445 1445 1446 1446 1447 1447 1448 1449 1449 1450 1451 1451 1452 1452 1452 1453 1453 1453 1453 1452 1452 1453 1453 1453 1453
1440 1439 1439 1438 1438 1438 1438 1439 1439 1439 1440 1440 1441 1441 1441 1442 1442 1442 1443 1443 1443 1443 1443 1444 1445 1446 1446 1447 1448 1448 1448 1449 1449 1450 1450 1450 1450 1450 1450 1450 1450 1450 1451 1451
1439 1439 1438 1438 1438 1438 1438 1439 1438 1438 1438 1439 1439 1439 1439 1439 1439 1439 1440 1440 1440 1440 1441 1442 1443 1443 1444 1445 1445 1446 1446 1447 1447 1447 1447 1448 1448 1448 1448 1448 1448 1448 1448 1448
1440 1439 1439 1439 1438 1438 1438 1438 1439 1438 1438 1438 1438 1438 1438 1438 1438 1438 1438 1438 1438 1438 1439 1440 1441 1441 1442 1442 1443 1443 1444 1444 1445 1445 1445 1445 1445 1446 1446 1446 1446 1446 1446 1446
1440 1439 1439 1439 1438 1438 1438 1438 1438 1438 1438 1438 1438 1438 1437 1437 1437 1437 1437 1437 1437 1437 1437 1438 1438 1439 1439 1440 1441 1441 1442 1442 1442 1443 1443 1443 1443 1443 1443 1443 1443 1443 1443 1443
1440 1440 1440 1439 1439 1439 1438 1438 1438 1438 1438 1437 1437 1437 1437 1437 1436 1436 1436 1435 1435 1435 1435 1436 1436 1437 1437 1438 1438 1439 1439 1439 1440 1440 1440 1441 1441 1441 1441 1440 1440 1440 1440 1440
1441 1440 1439 1439 1439 1439 1439 1438 1438 1438 1438 1437 1437 1437 1437 1437 1436 1436 1435 1435 1435 1435 1435 1435 1435 1435 1435 1436 1437 1437 1437 1437 1437 1438 1438 1438 1438 1438 1438 1438 1438 1438 1438 1438